Other Surface Observations
Issued by NWS Tucson, AZ

Home | Current Version | Previous Version | Text Only | Print | Product List | Glossary On
Versions: 1 2 3 4 5 6 7 8 9 10 11 12 13 14 15 16 17 18 19 20 21 22 23 24 25 26 27 28 29 30 31 32 33 34 35 36 37 38 39 40 41 42 43 44 45 46 47 48 49 50
000
SXUS55 KTWC 272015
OSOTWC

WEATHER ROUNDUP FOR SOUTHEAST ARIZONA
NATIONAL WEATHER SERVICE TUCSON AZ
115 PM MST THU NOV 27 2014

AZZ504>506-514-272115-
LOCATION       SKY/WX    TMP DP  RH WIND       PRES   REMARKS
TUCSON         SUNNY     81  20  10 E16G23    30.17F
DAVIS-MONTHAN  SUNNY     80  20  10 E13       30.15F
CHILDRENS PARK N/A       76  25  15 SE3               PIMA CO DEQ
ALVERNON/22ND  N/A      N/A N/A N/A N/A               PIMA CO DEQ
CHERRY/GLENN   N/A      N/A N/A N/A N/A               PIMA CO DEQ
TANGERINE      N/A       78 N/A N/A SW2               PIMA CO DEQ
CONTL RANCH    N/A       76  25  15 NW3               PIMA CO DEQ
GRANT/1ST      N/A       77  24  14 E4                PIMA CO DEQ
CRAYCROFT/22ND N/A      N/A N/A N/A N/A               PIMA CO DEQ
GOLFLINKS/KOLB N/A       78  21  12 E6                PIMA CO DEQ
AJO/12TH       N/A       79  20  11 SE15              PIMA CO DEQ
SAGUARO EAST   N/A      N/A N/A N/A N/A               PIMA CO DEQ
FAIRGROUNDS    N/A       75 N/A N/A SE24              PIMA CO DEQ
SAGUARO        N/A       84  19   9 SE7G16            *SABINO CYN
SAN CARLOS     N/A       69  22  17 S2                *SAN CARLOS
GREEN VALLEY   N/A       78  21  12 NE2               PIMA CO DEQ
HORSE CAMP CYN N/A       69  19  15 E17G29            *ARAVAIPA CYN
RINCON MTNS    N/A       56  10  16 E10G17            *NR MANNING CAMP
$$

AZZ509>511-272115-
LOCATION       SKY/WX    TMP DP  RH WIND       PRES   REMARKS
SAFFORD        SUNNY     70  19  14 VRB6      30.28F
STRAY HORSE    N/A       60  18  19 SE4               *
TRAIL CABIN    N/A       62  22  21 NE7G10            *N OF GRANVILLE
BLACK HILLS    N/A       70  22  16 SW5G10            *N OF FT THOMAS
DRY LAKE       N/A       61  20  20 S6G10             *NATANES MTNS
NOON CREEK     N/A       67  21  17 S5G13             *PINALENO MTNS
COLUMBINE      N/A       65 -12   4 N2                *PINALENO MTNS
GUTHRIE        N/A       59  19  21 SE8G15            *SW OF GUTHRIE
$$

AZZ502-503-513-272115-
LOCATION       SKY/WX    TMP DP  RH WIND       PRES   REMARKS
NOGALES        SUNNY     79  17  10 E10       30.20F
SELLS          N/A       79  24  13 NW5G10            *
SASABE         N/A       83  21  10 SE4G12            *ALTAR VLY
HOPKINS        N/A       64  12  13 E21G32            *SANTA RITA MTNS
CARR CYN       N/A       64  20  18 E5G13             *W OF HEREFORD
$$

AZZ507-508-512-272115-
LOCATION       SKY/WX    TMP DP  RH WIND       PRES   REMARKS
SIERRA VISTA   SUNNY     71  18  13 VRB3      30.28F
DOUGLAS        SUNNY     73  21  14 E13G20    30.27F
EMPIRE MTNS    N/A       72  20  14 E13G19            *LAS CIENEGAS NCA
MULESHOE RANCH N/A       69  18  14 E11G20            *PRESERVE
HEADQUARTERS   N/A       66  21  18 E11G25            *CHIRICAHUA MTNS
$$

.............................NOTES.............................
THIS IS AN AUTOMATED COLLECTIVE WITH MINIMAL QUALITY CONTROL.
PIMA CO DEQ SITES HAVE NONSTANDARD WIND SENSOR HEIGHTS.
PIMA CO DEQ SITES DO NOT REPORT WIND GUSTS.
* INDICATES WIND SENSORS LOCATED AT 20 FEET INSTEAD OF 33 FEET.
..............................KEY..............................
SKY/WX - SKY CONDITION/WEATHER
TMP    - TEMPERATURE IN FAHRENHEIT
DP     - DEWPOINT IN FAHRENHEIT
RH     - RELATIVE HUMIDITY IN PERCENT
WIND   - DIRECTION AND SPEED IN MILES PER HOUR (MPH)
VRB    - VARIABLE WIND DIRECTION
PRES   - MEAN SEA LEVEL PRESSURE IN INCHES OF MERCURY
         F - FALLING PRESSURE   R - RISING PRESSURE
         S - STEADY PRESSURE
VSB    - VISIBILITY IN MILES
HX     - HEAT INDEX IN FAHRENHEIT
WCI    - WIND CHILL INDEX IN FAHRENHEIT
N/A    - NOT AVAILABLE
AFB    - AIR FORCE BASE
         DAVIS-MONTHAN IS DAVIS-MONTHAN AIR FORCE BASE
CYN    - CANYON
MTNS   - MOUNTAINS
NCA    - NATIONAL CONSERVATION AREA
NR     - NEAR
VLY    - VALLEY
CONTL  - CONTINENTAL
PIMA CO DEQ - PIMA COUNTY DEPT OF ENVIRONMENTAL QUALITY



USA.gov is the U.S. government's official web portal to all federal, state and local government web resources and services.